Content
SEND FEEDBACK

Daily
Averages
Monthly
Summary
United States of America

WESTERNPORT, MARYLAND


Home > North America > United States > Maryland
Elevation: 922 feet     Latitude: 39 29N     Longitude: 079 03W

WEATHER
 
SELECT A DAY
Number of Records: 198,825;   Date Range: 5/31/06 - 9/30/14
 
SHARE

PRINT THIS DATA

[ ← Previous Day ]
WEATHER ALMANAC - JULY 11, 2014
[ Next Day → ]
[ °C ]   °F
Weather ElementAverageHighLow
Temperature65.7 °F77 °F (4:10 pm)57.2 °F (1:55 am)
Dewpoint30.5 °F62.6 °F (10:35 am) (7:00 pm)
Humidity62.8 %100 % (12:50 am)38 % (6:30 pm)
Barometer30.27 in30.31 in (12:45 am)30.23 in (12:05 am)
Wind Speed3.9 mph8.1 mph (1:35 pm)
Weather ElementAverage
Visibility9.4 mi
Wind DirectionESE (109 °)

Weather ElementTotal
Precipitation---
Cooling Degree Days2.1 (Base 65)
Growing Degree Days17.1 (Base 50)
Averaged from 68 records on July 11, 2014
WEATHER CONDITIONS BREAKOUT
WIND DIRECTION BREAKOUT
WEATHER BY HOUR - JULY 11, 2014
[ °C ]   °F
Local TimeTemperatureDewpointHumidityBarometerVisibilityWind DirectionWind SpeedGust SpeedPrecipitationEventsConditions
12:00 AM59.0 °F0.0 °F30.23 in10.0 miSE (130°)5.8 mphClear
12:20 AM59.0 °F0.0 °F30.23 in10.0 miSE (130°)4.6 mphClear
12:40 AM59.0 °F0.0 °F30.23 in10.0 miESE (120°)8.1 mphClear
1:00 AM59.0 °F0.0 °F30.23 in7.0 miSE (130°)6.9 mphClear
1:20 AM59.0 °F0.0 °F30.23 in5.0 miSE (140°)6.9 mphHaze
1:40 AM59.0 °F0.0 °F30.23 in5.0 miSSE (160°)5.8 mphHaze
2:00 AM59.0 °F0.0 °F30.23 in7.0 miSE (140°)8.1 mphClear
2:20 AM59.0 °F0.0 °F30.23 in7.0 miSE (130°)6.9 mphClear
2:40 AM59.0 °F0.0 °F30.23 in7.0 miSE (140°)6.9 mphClear
3:00 AM59.0 °F0.0 °F30.23 in10.0 miSE (140°)6.9 mphClear
3:20 AM59.0 °F0.0 °F30.23 in7.0 miSE (140°)6.9 mphClear
3:40 AM59.0 °F0.0 °F30.24 in7.0 miSSE (150°)8.1 mphClear
4:00 AM57.2 °F0.0 °F30.24 in7.0 miSSE (160°)5.8 mphClear
4:20 AM59.0 °F0.0 °F30.24 in10.0 miSSE (160°)5.8 mphClear
4:40 AM59.0 °F0.0 °F30.24 in10.0 miSouth (170°)4.6 mphClear
5:00 AM59.0 °F0.0 °F30.24 in10.0 miSSW (210°)3.5 mphClear
5:20 AM59.0 °F0.0 °F30.24 in10.0 miSouth (190°)3.5 mphClear
5:40 AM59.0 °F0.0 °F30.25 in10.0 miCalmClear
6:00 AM59.0 °F0.0 °F30.25 in10.0 miSE (140°)3.5 mphClear
6:20 AM57.2 °F0.0 °F30.25 in5.0 miSE (140°)4.6 mphHaze
6:40 AM59.0 °F0.0 °F30.25 in10.0 miSE (130°)4.6 mphClear
7:00 AM59.0 °F0.0 °F30.26 in10.0 miSE (140°)4.6 mphClear
7:20 AM59.0 °F0.0 °F30.27 in7.0 miSE (140°)3.5 mphClear
7:40 AM60.8 °F0.0 °F30.28 in10.0 miSE (130°)3.5 mphClear
8:00 AM62.6 °F0.0 °F30.28 in10.0 miESE (120°)3.5 mphClear
8:20 AM62.6 °F0.0 °F30.29 in10.0 miSE (130°)3.5 mphClear
8:40 AM64.4 °F0.0 °F30.29 in10.0 miSE (130°)4.6 mphClear
9:00 AM64.4 °F0.0 °F30.29 in10.0 miSE (130°)4.6 mphClear
9:20 AM64.4 °F0.0 °F30.30 in10.0 miSE (130°)4.6 mphClear
9:40 AM64.4 °F0.0 °F30.30 in10.0 miSE (130°)3.5 mphClear
10:00 AM68.0 °F0.0 °F30.30 in10.0 miCalmClear
10:20 AM69.8 °F62.6 °F78 %30.30 in10.0 miCalmScattered Clouds
10:40 AM69.8 °F59.0 °F68 %30.30 in10.0 miCalmScattered Clouds
11:00 AM69.8 °F59.0 °F68 %30.31 in10.0 miCalmScattered Clouds
11:20 AM71.6 °F53.6 °F53 %30.31 in10.0 miENE (60°)4.6 mphScattered Clouds
11:40 AM71.6 °F51.8 °F50 %30.31 in10.0 miCalmMostly Cloudy
12:00 PM69.8 °F51.8 °F53 %30.31 in10.0 miCalmOvercast
12:20 PM69.8 °F51.8 °F53 %30.31 in10.0 miCalmOvercast
12:40 PM71.6 °F46.4 °F41 %30.31 in10.0 miCalmScattered Clouds
1:20 PM75.2 °F51.8 °F44 %30.30 in10.0 miSSE (150°)4.6 mphScattered Clouds
1:40 PM73.4 °F50.0 °F44 %30.30 in10.0 miSE (130°)4.6 mphClear
2:00 PM73.4 °F46.4 °F38 %30.29 in10.0 miCalmScattered Clouds
2:20 PM71.6 °F48.2 °F43 %30.29 in10.0 miCalmMostly Cloudy
2:40 PM73.4 °F46.4 °F38 %30.29 in10.0 miCalmMostly Cloudy
3:00 PM73.4 °F46.4 °F38 %30.29 in10.0 miENE (60°)3.5 mphOvercast
3:20 PM77.0 °F55.4 °F47 %30.29 in10.0 miCalmMostly Cloudy
3:40 PM73.4 °F51.8 °F47 %30.29 in10.0 miEast (100°)4.6 mphMostly Cloudy
4:00 PM73.4 °F53.6 °F50 %30.29 in10.0 miCalmMostly Cloudy
4:20 PM73.4 °F57.2 °F57 %30.28 in10.0 miCalmMostly Cloudy
4:40 PM71.6 °F55.4 °F57 %30.27 in10.0 miSouth (180°)3.5 mphMostly Cloudy
5:00 PM73.4 °F57.2 °F57 %30.28 in10.0 miCalmMostly Cloudy
5:20 PM71.6 °F59.0 °F64 %30.28 in10.0 miSSE (160°)3.5 mphScattered Clouds
5:40 PM73.4 °F59.0 °F61 %30.27 in10.0 miSE (130°)3.5 mphScattered Clouds
6:20 PM73.4 °F57.2 °F57 %30.27 in10.0 miEast (100°)3.5 mphClear
6:40 PM73.4 °F59.0 °F61 %30.27 in10.0 miSE (140°)5.8 mphMostly Cloudy
7:20 PM71.6 °F59.0 °F64 %30.27 in10.0 miSE (130°)5.8 mphScattered Clouds
7:40 PM69.8 °F60.8 °F73 %30.27 in10.0 miSE (140°)4.6 mphClear
8:00 PM69.8 °F60.8 °F73 %30.28 in10.0 miSSE (150°)4.6 mphClear
8:20 PM68.0 °F59.0 °F73 %30.28 in10.0 miSE (140°)5.8 mphClear
8:40 PM68.0 °F59.0 °F73 %30.29 in10.0 miSSE (150°)5.8 mphClear
9:00 PM66.2 °F59.0 °F78 %30.29 in10.0 miSSE (150°)5.8 mphClear
9:20 PM66.2 °F59.0 °F78 %30.29 in10.0 miSSE (160°)5.8 mphMostly Cloudy
9:40 PM66.2 °F59.0 °F78 %30.29 in10.0 miSSE (160°)5.8 mphMostly Cloudy
10:00 PM64.4 °F59.0 °F83 %30.30 in10.0 miSSE (160°)5.8 mphScattered Clouds
10:20 PM64.4 °F60.8 °F88 %30.30 in10.0 miSouth (170°)5.8 mphClear
11:00 PM64.4 °F62.6 °F94 %30.31 in10.0 miSouth (190°)4.6 mphScattered Clouds
11:20 PM62.6 °F62.6 °F100 %30.31 in10.0 miSouth (190°)4.6 mphClear
11:40 PM62.6 °F62.6 °F100 %30.31 in10.0 miSouth (180°)5.8 mphClear
Hourly data recorded from K2G4, located miles away from Westernport, Maryland







STORIES FROM OUR PARTNERS